| time (UTC) | temp F | wind direction | speed MPH | gust MPH | rain 1hr in | rain 24hr in | rain mn in | humidity % | barometer mb |
| 20260502164011 | 84 | 239 | 5.0 | 12.0 | 0.00 | 0.00 | 0.00 | 68 | 1010.5 |
| 20260502163007 | 84 | 227 | 8.0 | 12.0 | 0.00 | 0.00 | 0.00 | 67 | 1010.7 |
| 20260502162012 | 84 | 223 | 9.0 | 14.0 | 0.00 | 0.00 | 0.00 | 68 | 1010.7 |
| 20260502161015 | 84 | 225 | 11.0 | 15.0 | 0.00 | 0.00 | 0.00 | 67 | 1010.8 |
| 20260502151753 | 82 | 238 | 11.0 | 18.0 | 0.00 | 0.00 | 0.00 | 71 | 1011.4 |
| 20260502150755 | 81 | 211 | 13.0 | 18.0 | 0.00 | 0.00 | 0.00 | 74 | 1011.4 |
| 20260502130404 | 77 | 195 | 10.0 | 13.0 | 0.00 | 0.00 | 0.00 | 77 | 1010.6 |
| 20260502123400 | 74 | 188 | 7.0 | 11.0 | 0.00 | 0.00 | 0.00 | 85 | 1010.7 |
| 20260502121305 | 73 | 214 | 7.0 | 11.0 | 0.00 | 0.00 | 0.00 | 86 | 1010.8 |
| 20260502115100 | 73 | 219 | 8.0 | 11.0 | 0.00 | 0.00 | 0.00 | 86 | 1010.6 |
| 20260502114044 | 72 | 209 | 8.0 | 10.0 | 0.00 | 0.00 | 0.00 | 86 | 1010.6 |
| 20260502113058 | 72 | 220 | 7.0 | 9.0 | 0.00 | 0.00 | 0.00 | 86 | 1010.5 |
| 20260502112110 | 72 | 221 | 7.0 | 9.0 | 0.00 | 0.00 | 0.00 | 86 | 1010.5 |
| 20260502111105 | 72 | 200 | 7.0 | 9.0 | 0.00 | 0.00 | 0.00 | 86 | 1010.4 |
| 20260502104943 | 72 | 211 | 7.0 | 9.0 | 0.00 | 0.00 | 0.00 | 85 | 1010.3 |
| 20260502103952 | 72 | 223 | 6.0 | 8.0 | 0.00 | 0.00 | 0.00 | 85 | 1010.3 |
| 20260502102917 | 73 | 216 | 6.0 | 8.0 | 0.00 | 0.00 | 0.00 | 84 | 1010.1 |
| 20260502101908 | 73 | 239 | 5.0 | 8.0 | 0.00 | 0.00 | 0.00 | 84 | 1010.0 |
| 20260502100902 | 73 | 231 | 4.0 | 7.0 | 0.00 | 0.00 | 0.00 | 84 | 1010.1 |
| 20260502090626 | 74 | 231 | 8.0 | 13.0 | 0.00 | 0.00 | 0.00 | 81 | 1010.4 |
| 20260502071405 | 76 | 223 | 8.0 | 11.0 | 0.00 | 0.00 | 0.00 | 75 | 1010.1 |
| 20260502070405 | 77 | 219 | 8.0 | 11.0 | 0.00 | 0.00 | 0.00 | 74 | 1010.1 |
| 20260502065341 | 77 | 236 | 8.0 | 11.0 | 0.00 | 0.00 | 0.00 | 74 | 1010.1 |
| 20260502064359 | 77 | 244 | 8.0 | 10.0 | 0.00 | 0.00 | 0.00 | 72 | 1010.1 |
| 20260502063350 | 77 | 241 | 8.0 | 11.0 | 0.00 | 0.00 | 0.00 | 72 | 1010.1 |
| 20260502062410 | 77 | 231 | 8.0 | 11.0 | 0.00 | 0.00 | 0.00 | 72 | 1010.2 |
| 20260502061355 | 78 | 238 | 8.0 | 11.0 | 0.00 | 0.00 | 0.00 | 72 | 1010.2 |
| 20260502060400 | 78 | 219 | 8.0 | 11.0 | 0.00 | 0.00 | 0.00 | 72 | 1010.4 |
| 20260502055355 | 78 | 219 | 9.0 | 12.0 | 0.00 | 0.00 | 0.00 | 71 | 1010.5 |
| 20260502054321 | 78 | 219 | 10.0 | 12.0 | 0.00 | 0.00 | 0.00 | 71 | 1010.6 |
| 20260502053249 | 78 | 224 | 9.0 | 13.0 | 0.00 | 0.00 | 0.00 | 72 | 1010.5 |
| 20260502051106 | 79 | 200 | 10.0 | 13.0 | 0.00 | 0.00 | 0.00 | 72 | 1010.6 |
| 20260502050101 | 79 | 192 | 10.0 | 15.0 | 0.00 | 0.00 | 0.00 | 71 | 1010.6 |
| 20260502045042 | 79 | 216 | 11.0 | 15.0 | 0.00 | 0.00 | 0.00 | 72 | 1010.5 |
| 20260502044034 | 79 | 221 | 11.0 | 15.0 | 0.00 | 0.00 | 0.00 | 72 | 1010.6 |
| 20260502043023 | 79 | 206 | 11.0 | 16.0 | 0.00 | 0.00 | 0.00 | 75 | 1010.7 |
| 20260502042008 | 79 | 197 | 11.0 | 16.0 | 0.00 | 0.00 | 0.00 | 78 | 1010.7 |
| 20260502041013 | 78 | 185 | 11.0 | 15.0 | 0.00 | 0.00 | 0.00 | 78 | 1010.7 |
| 20260502034750 | 79 | 184 | 11.0 | 17.0 | 0.00 | 0.00 | 0.00 | 77 | 1010.6 |
| 20260502032630 | 80 | 180 | 14.0 | 20.0 | 0.00 | 0.00 | 0.00 | 77 | 1010.7 |
| 20260502031640 | 80 | 192 | 14.0 | 18.0 | 0.00 | 0.00 | 0.00 | 77 | 1010.7 |
| 20260502030633 | 80 | 158 | 14.0 | 18.0 | 0.00 | 0.00 | 0.00 | 77 | 1010.7 |
| 20260502025613 | 80 | 180 | 12.0 | 17.0 | 0.00 | 0.00 | 0.00 | 78 | 1010.7 |
| 20260502024632 | 80 | 171 | 9.0 | 14.0 | 0.00 | 0.00 | 0.00 | 78 | 1010.8 |
| 20260502022441 | 81 | 166 | 9.0 | 13.0 | 0.00 | 0.00 | 0.00 | 76 | 1010.7 |
| 20260502021416 | 81 | 179 | 9.0 | 13.0 | 0.00 | 0.00 | 0.00 | 79 | 1010.7 |
| 20260502020438 | 81 | 158 | 6.0 | 10.0 | 0.00 | 0.00 | 0.00 | 80 | 1010.6 |
| 20260502015457 | 81 | 149 | 6.0 | 12.0 | 0.00 | 0.00 | 0.00 | 80 | 1010.6 |
| 20260502014441 | 81 | 142 | 7.0 | 14.0 | 0.00 | 0.00 | 0.00 | 80 | 1010.5 |
| 20260502013429 | 81 | 146 | 9.0 | 14.0 | 0.00 | 0.00 | 0.00 | 80 | 1010.2 |
| 20260502012422 | 81 | 138 | 8.0 | 14.0 | 0.00 | 0.00 | 0.00 | 80 | 1010.2 |
| 20260502011427 | 81 | 134 | 8.0 | 14.0 | 0.00 | 0.00 | 0.00 | 79 | 1010.2 |
| 20260502010352 | 80 | 135 | 8.0 | 13.0 | 0.00 | 0.00 | 0.00 | 79 | 1010.0 |
| 20260502005328 | 80 | 117 | 7.0 | 13.0 | 0.00 | 0.00 | 0.00 | 79 | 1009.9 |
| 20260502004319 | 80 | 146 | 6.0 | 10.0 | 0.00 | 0.00 | 0.00 | 80 | 1009.9 |
| 20260502003246 | 80 | 137 | 6.0 | 13.0 | 0.00 | 0.00 | 0.00 | 79 | 1009.7 |
| 20260502002257 | 80 | 162 | 6.0 | 13.0 | 0.00 | 0.00 | 0.00 | 79 | 1009.6 |
| 20260502001246 | 80 | 124 | 6.0 | 11.0 | 0.00 | 0.00 | 0.00 | 79 | 1009.4 |
| 20260502000226 | 80 | 126 | 6.0 | 12.0 | 0.00 | 0.00 | 0.00 | 79 | 1009.4 |
| 20260501235158 | 80 | 111 | 7.0 | 12.0 | 0.00 | 0.00 | 0.00 | 78 | 1009.3 |
| 20260501234208 | 81 | 153 | 5.0 | 11.0 | 0.00 | 0.00 | 0.00 | 78 | 1009.2 |
| 20260501233142 | 81 | 113 | 6.0 | 11.0 | 0.00 | 0.00 | 0.00 | 78 | 1009.3 |
| 20260501232116 | 81 | 153 | 7.0 | 12.0 | 0.00 | 0.00 | 0.00 | 77 | 1009.3 |
| 20260501231047 | 81 | 142 | 6.0 | 16.0 | 0.00 | 0.00 | 0.00 | 77 | 1009.2 |
| 20260501230016 | 81 | 144 | 7.0 | 17.0 | 0.00 | 0.00 | 0.00 | 77 | 1008.8 |
| 20260501225013 | 81 | 152 | 9.0 | 17.0 | 0.00 | 0.00 | 0.00 | 76 | 1008.9 |
| 20260501222916 | 81 | 159 | 8.0 | 15.0 | 0.00 | 0.00 | 0.00 | 75 | 1008.8 |
| 20260501221901 | 81 | 124 | 7.0 | 15.0 | 0.00 | 0.00 | 0.00 | 75 | 1009.0 |
| 20260501220848 | 81 | 132 | 9.0 | 16.0 | 0.00 | 0.00 | 0.00 | 74 | 1009.1 |
| 20260501214708 | 81 | 163 | 10.0 | 18.0 | 0.00 | 0.00 | 0.00 | 72 | 1008.8 |
| 20260501213643 | 82 | 126 | 8.0 | 15.0 | 0.00 | 0.00 | 0.00 | 71 | 1009.0 |
| 20260501212612 | 82 | 140 | 8.0 | 15.0 | 0.00 | 0.00 | 0.00 | 71 | 1009.0 |
| 20260501205420 | 82 | 97 | 9.0 | 16.0 | 0.00 | 0.00 | 0.00 | 70 | 1009.2 |
| 20260501202136 | 82 | 119 | 8.0 | 13.0 | 0.00 | 0.00 | 0.00 | 70 | 1009.6 |
| 20260501201141 | 82 | 166 | 7.0 | 12.0 | 0.00 | 0.00 | 0.00 | 70 | 1009.9 |
| 20260501194933 | 82 | 98 | 7.0 | 14.0 | 0.00 | 0.00 | 0.00 | 71 | 1010.1 |
| 20260501193935 | 82 | 126 | 7.0 | 12.0 | 0.00 | 0.00 | 0.00 | 71 | 1010.2 |
| 20260501192923 | 83 | 105 | 6.0 | 12.0 | 0.00 | 0.00 | 0.00 | 70 | 1010.4 |
| 20260501191943 | 82 | 163 | 6.0 | 12.0 | 0.00 | 0.00 | 0.00 | 72 | 1010.6 |
| 20260501190908 | 82 | 101 | 6.0 | 13.0 | 0.00 | 0.00 | 0.00 | 72 | 1010.7 |
| 20260501185845 | 82 | 126 | 8.0 | 13.0 | 0.00 | 0.00 | 0.00 | 72 | 1010.7 |
| 20260501184850 | 82 | 115 | 7.0 | 12.0 | 0.00 | 0.00 | 0.00 | 73 | 1010.8 |
| 20260501183910 | 82 | 113 | 7.0 | 14.0 | 0.00 | 0.00 | 0.00 | 71 | 1011.0 |
| 20260501181803 | 82 | 101 | 6.0 | 11.0 | 0.00 | 0.00 | 0.00 | 70 | 1011.1 |
| 20260501174509 | 82 | 136 | 7.0 | 11.0 | 0.00 | 0.00 | 0.00 | 72 | 1011.4 |
| 20260501173507 | 82 | 123 | 5.0 | 12.0 | 0.00 | 0.00 | 0.00 | 73 | 1011.4 |
| 20260501172504 | 82 | 82 | 7.0 | 12.0 | 0.00 | 0.00 | 0.00 | 72 | 1011.5 |
| 20260501171516 | 82 | 119 | 6.0 | 12.0 | 0.00 | 0.00 | 0.00 | 73 | 1011.5 |